Location: Kelshall
(52.0000°N, 0.0500°W)
Time: 21:48:33
(UTC+00:00)

ATLAS 2AS CENTAUR R/B - Pass Details

Date: 21 January 2021
Orbit: 947 x 1265 km, 63.7° (Epoch: 13 February)

Event Time Altitude Azimuth Distance (km) Brightness Sun altitude
Rises 17:23:34 0° 236° (WSW) 4,210 7.8 -8.4°
Reaches altitude 10° 17:26:25 10° 240° (WSW) 3,250 6.8 -8.8°
Maximum altitude 17:34:18 67° 322° (NW) 1,350 3.3 -9.9°
Drops below altitude 10° 17:41:59 10° 45° (NE) 3,164 4.6 -11.0°
Enters shadow 17:42:08 - 45° (NE) 3,215 4.7 -11.0°
